SCP
1 1 0 0 0 0 0 0 0 0 0 0 0 0 0 0 0 0 0 0 0 1 1 2 3 4 3 4 4 4 3 2 2 2 2 2 2 1 1 1 1 1 1 0 0 0 0 0 0
1 1 0 1 0 0 0 0 0 0 0 0 0 0 0 0 0 0 0 0 0 1 1 2 3 4 4 4 4 4 3 3 2 2 2 2 2 2 1 1 1 1 1 0 0 0 0 0 0
0 0 1 1 0 0 0 0 0 0 0 0 0 0 0 0 0 0 0 0 0 1 2 2 3 4 4 4 5 4 4 3 2 2 2 2 2 2 1 1 1 1 1 0 0 0 0 0 0
0 1 1 1 0 0 0 0 0 0 0 0 0 0 0 0 0 0 0 0 0 1 2 3 4 4 4 4 5 5 4 3 3 2 2 2 2 2 2 1 1 1 1 0 0 0 0 0 0
0 1 1 1 0 0 0 0 0 0 0 0 0 0 0 0 0 0 0 0 1 1 2 3 4 5 5 5 5 5 4 3 3 2 2 2 2 2 2 2 1 1 1 0 0 0 0 0 0
1 1 1 0 0 0 0 0 0 0 0 0 0 0 0 0 0 0 0 0 1 1 2 2 4 5 5 5 5 5 5 4 3 3 2 2 2 2 2 2 1 1 1 0 0 0 0 0 0
0 0 0 0 0 0 0 0 0 0 0 0 0 0 0 0 0 0 0 0 1 1 1 2 3 4 4 4 4 4 4 4 3 3 2 2 2 2 2 2 1 1 0 0 0 0 0 0 0
0 0 0 0 0 0 0 0 0 0 0 0 0 0 0 0 0 0 0 1 1 1 1 2 2 3 3 3 3 3 4 4 3 3 2 2 2 2 2 1 1 1 0 0 0 0 0 0 0
0 0 0 0 0 0 0 0 0 0 0 0 0 0 0 0 0 0 0 1 1 1 1 2 2 3 3 3 2 2 3 3 3 2 2 2 2 1 1 1 1 1 0 0 0 0 0 0 0
0 0 0 0 0 0 0 0 0 0 0 0 0 0 0 0 0 0 0 0 1 1 1 1 2 2 3 3 3 2 2 2 2 2 1 1 1 1 1 1 0 0 0 0 0 0 0 0 0
0 0 0 0 0 0 0 0 0 0 0 0 0 0 0 0 0 0 0 0 0 1 1 1 2 2 3 3 3 3 3 2 2 1 1 1 1 1 1 1 0 0 0 0 0 0 0 0 0
0 0 0 0 0 0 0 0 0 0 0 0 0 0 0 0 0 0 0 0 0 1 1 1 1 2 3 4 4 4 4 3 2 1 1 1 1 1 1 1 0 0 0 0 0 0 0 0 0
0 0 0 0 0 0 0 0 0 0 0 0 0 0 0 0 0 0 0 0 0 0 1 1 1 2 3 4 4 4 4 3 2 1 1 1 1 1 1 1 0 0 0 0 0 0 0 0 0
0 0 0 0 0 0 0 0 0 0 0 0 0 0 0 0 0 0 0 0 0 0 1 1 1 2 2 3 4 4 3 3 2 1 1 1 1 1 1 0 0 0 0 0 0 0 0 0 0
0 0 0 0 0 0 0 0 0 0 0 0 0 0 0 0 0 0 0 0 0 0 0 1 1 1 2 3 3 3 3 2 2 1 1 1 1 1 0 0 0 0 0 0 0 0 0 0 0
0 0 0 0 0 0 0 0 0 0 0 0 0 0 0 0 0 0 0 0 0 0 0 1 1 1 2 2 3 2 2 2 2 1 1 1 1 0 0 0 0 0 0 0 0 0 0 0 0
0 0 0 0 0 0 0 0 0 0 0 0 0 0 0 0 0 0 0 0 0 0 0 1 1 1 2 2 3 2 2 2 2 2 2 1 1 0 0 0 0 0 0 0 0 0 0 0 0
0 0 0 0 0 0 0 0 0 0 0 0 0 0 0 0 0 0 0 0 0 0 1 1 1 1 2 3 3 2 2 2 2 2 2 1 1 0 0 0 0 0 0 0 0 0 0 0 0
0 0 0 0 0 0 0 0 0 0 0 0 0 0 0 0 0 0 0 0 0 1 1 1 1 1 2 2 3 2 2 2 2 2 1 1 1 0 0 0 0 0 0 0 0 0 0 0 0
0 0 0 0 0 0 0 0 0 0 0 0 0 0 0 0 0 0 0 0 0 1 1 1 1 1 2 2 2 2 2 2 2 2 1 1 0 0 0 0 0 0 0 0 0 0 0 0 0
0 0 0 0 0 0 0 0 0 0 0 0 0 0 0 0 1 0 0 0 1 1 1 1 1 1 2 2 2 2 2 2 2 2 1 1 0 0 0 0 0 0 0 0 0 0 0 0 0
0 0 0 0 0 0 0 0 0 0 0 0 0 0 0 0 1 1 1 1 1 1 1 1 1 2 2 2 2 2 2 2 2 2 1 1 0 0 0 0 0 0 0 0 0 0 0 0 0
0 0 0 0 0 0 0 0 0 0 0 0 0 0 0 0 0 1 1 1 1 1 1 1 1 2 2 2 2 2 2 2 2 1 1 1 0 0 0 0 0 0 0 0 0 0 0 0 0
0 0 0 0 0 0 0 0 0 0 0 0 0 0 0 0 0 1 1 1 1 1 1 1 1 2 2 2 2 2 2 2 2 1 1 1 0 0 0 0 0 0 0 0 0 0 0 0 0
0 0 0 0 0 0 0 0 0 0 0 0 0 0 0 0 0 0 1 1 1 1 1 1 2 2 2 2 2 2 2 2 2 2 1 1 1 0 0 0 0 0 0 0 0 0 0 0 0
0 0 0 0 0 0 0 0 0 0 0 0 0 0 0 0 0 0 0 1 1 1 1 1 2 2 2 2 2 2 2 2 1 1 1 1 1 0 0 0 0 0 0 0 0 0 0 0 0
0 0 0 0 0 0 0 0 0 0 0 0 0 0 0 0 0 0 0 0 0 1 1 1 1 1 2 2 2 2 2 2 1 1 1 1 1 1 0 0 0 0 0 0 0 0 0 0 0
0 0 0 0 0 0 0 0 0 0 0 0 0 0 0 0 0 0 0 0 0 0 1 1 1 1 1 2 2 2 2 2 2 1 1 1 1 1 0 0 0 0 0 0 0 0 0 0 0
0 0 0 0 0 0 0 0 0 0 0 0 0 0 0 0 0 0 0 0 0 0 0 0 0 0 1 1 1 2 2 2 2 1 1 1 1 1 1 1 0 0 0 0 0 0 0 0 0
0 0 0 0 0 0 0 0 0 0 0 0 0 0 0 0 0 0 0 0 0 0 0 0 0 0 0 1 1 1 1 1 1 1 1 1 1 1 1 1 0 0 0 0 0 0 0 0 0
Wind_Speed
5 6 5 4 7 9 15 12 9 6 6 5 5 6 7 9 6 1 4 10 13 17 19 20 18 19 18 17 17 17 16 15 15 14 14 14 14 14 14 14 13 13 13 14 14 14 14 14 14
4 5 5 6 10 14 14 13 14 11 5 3 6 7 7 8 4 1 5 11 15 17 18 19 19 19 19 18 17 17 16 16 15 14 14 14 14 14 13 13 13 13 14 13 13 14 14 14 14
5 5 6 7 13 17 12 7 11 10 7 6 6 6 6 4 3 2 5 13 15 17 17 18 19 19 19 19 18 17 17 16 15 15 14 14 14 13 13 13 13 13 13 13 13 13 13 13 13
5 5 7 12 21 20 15 6 4 7 8 9 7 6 4 1 1 2 8 14 16 17 17 18 18 20 19 18 18 17 17 16 16 15 15 14 14 14 13 13 13 13 13 13 13 13 13 12 12
5 7 12 17 24 20 15 12 7 8 7 7 8 7 5 2 1 4 10 14 16 16 16 19 18 19 19 18 18 17 17 16 16 16 15 14 14 14 13 13 13 13 13 13 12 12 12 11 11
7 8 14 20 23 20 17 14 13 13 11 8 8 10 5 3 4 7 11 13 14 15 15 17 18 17 18 18 18 17 17 16 16 16 15 14 14 14 14 13 13 12 12 12 12 11 11 10 10
9 10 19 22 21 20 16 14 16 15 15 12 9 9 6 5 5 8 11 13 14 14 14 15 17 17 17 17 17 17 16 16 15 15 14 13 13 14 13 12 12 12 11 11 11 11 10 10 10
8 8 17 21 22 21 14 14 14 16 16 10 9 10 7 5 8 9 11 12 13 13 14 15 16 16 16 16 15 15 14 14 14 13 12 12 12 13 12 12 12 12 11 10 10 10 9 9 10
7 12 19 21 19 16 12 14 14 11 12 11 11 9 3 7 10 11 11 12 13 13 14 14 15 15 15 15 15 15 13 13 13 12 12 11 10 11 10 10 11 11 11 10 10 9 9 9 9
10 15 23 17 16 15 13 14 12 11 14 14 12 8 6 10 12 14 15 16 17 17 16 14 15 14 14 12 13 12 11 12 12 11 13 10 9 8 8 10 9 9 9 9 9 9 9 6 6
11 17 17 17 15 15 15 15 13 16 18 17 14 11 11 13 14 15 16 16 17 17 16 15 14 14 13 10 10 8 7 9 10 12 12 9 8 7 7 7 7 8 8 7 8 8 5 4 4
13 16 17 16 14 14 16 15 16 19 18 13 12 10 13 15 16 17 17 16 16 17 18 17 15 14 14 12 10 9 8 8 8 10 12 9 6 7 7 6 6 6 5 5 5 4 5 5 5
17 16 15 16 16 16 17 19 18 21 18 13 12 12 15 16 17 16 16 16 16 17 18 18 17 15 14 12 10 9 9 9 10 9 10 11 8 8 8 6 6 6 5 6 5 5 5 5 4
12 14 15 16 17 16 18 21 20 21 16 13 14 16 17 18 18 16 17 18 18 18 19 18 18 17 15 13 11 10 9 9 9 9 11 12 9 8 7 7 7 6 6 5 5 5 5 4 4
12 15 16 16 16 14 14 21 23 21 17 16 16 17 18 19 18 19 19 18 18 18 18 19 18 18 17 15 14 10 9 10 9 9 12 12 10 9 8 7 7 6 6 6 5 5 4 4 4
10 12 13 11 12 12 14 22 19 15 17 19 17 17 18 19 20 19 18 18 18 18 18 19 15 18 17 15 13 10 10 10 9 9 10 13 12 11 9 7 7 7 6 6 5 5 5 4 4
9 11 15 12 11 10 14 19 16 13 16 18 18 18 18 17 19 19 19 18 18 18 19 19 19 19 17 15 12 11 10 10 9 9 10 12 13 12 10 8 7 8 7 6 6 5 5 5 4
9 12 14 14 10 11 16 20 17 13 14 17 18 18 17 18 19 18 18 18 17 18 18 19 19 18 17 13 11 9 10 10 9 9 10 13 12 13 11 8 9 9 7 7 7 7 5 4 4
12 13 16 15 11 12 17 20 19 16 15 17 18 18 17 18 17 16 16 17 16 17 19 19 20 19 16 13 12 11 11 10 10 10 12 14 13 14 12 9 10 9 8 9 9 7 7 5 4
13 15 15 13 10 12 16 20 20 18 18 18 19 18 18 17 15 15 16 17 18 19 20 20 21 20 19 14 13 11 11 10 10 9 12 14 14 14 12 12 10 10 8 10 10 9 6 5 5
13 15 14 13 11 12 14 17 18 17 17 17 18 18 17 17 16 15 16 18 19 20 20 18 21 21 20 18 12 10 9 8 9 11 11 14 15 15 14 14 12 11 10 9 10 10 10 7 7
12 11 13 12 10 8 8 11 13 13 14 15 16 15 15 15 15 15 15 17 19 20 18 20 21 21 20 19 16 17 14 13 14 12 11 13 15 15 15 14 14 12 10 10 11 11 9 9 7
9 9 11 12 12 11 11 11 10 9 12 13 13 12 13 13 13 14 14 15 17 17 16 17 19 20 21 20 20 19 16 14 12 12 14 14 14 15 15 15 14 13 11 12 12 11 11 9 8
8 8 8 9 7 11 12 11 11 7 10 10 10 10 10 9 10 11 11 12 14 14 15 15 17 20 21 21 21 21 21 18 16 16 14 13 11 12 16 15 14 13 12 12 12 12 13 10 10
5 5 4 5 6 8 6 9 10 6 7 8 8 7 6 6 6 7 8 9 11 13 14 15 18 20 21 22 22 22 22 21 20 18 16 15 12 12 16 16 15 13 13 12 12 12 12 12 12
6 6 5 5 6 5 5 10 6 3 4 5 6 5 5 5 5 5 5 7 8 11 13 15 17 19 21 22 21 21 21 16 15 18 15 15 13 13 16 17 16 15 15 13 12 11 11 10 11
5 6 6 6 7 7 8 7 7 4 4 3 3 3 4 5 5 5 5 6 8 9 11 14 16 17 18 21 21 20 21 19 17 17 17 14 13 12 16 17 16 16 15 15 13 10 12 11 11
7 4 4 5 6 8 8 10 6 3 3 3 4 5 6 7 7 7 6 6 6 7 9 11 14 15 17 18 19 16 19 19 18 16 17 16 16 15 16 17 17 16 15 15 14 11 12 12 11
5 6 5 5 6 7 8 4 0 1 2 4 6 8 8 9 9 8 7 7 6 6 7 8 11 14 15 16 17 18 18 18 18 17 18 17 16 16 16 17 17 16 16 16 14 14 13 13 12
7 7 7 6 7 7 8 6 0 1 3 7 9 10 10 10 10 9 9 7 6 5 6 7 9 11 13 14 15 17 17 17 18 18 18 17 17 16 16 16 16 16 16 16 16 15 15 14 14
Wind_Direction
196 184 193 206 222 231 237 229 225 215 213 214 206 215 227 223 219 319 84 162 156 157 159 161 160 156 153 151 148 144 142 140 137 134 130 128 126 123 120 117 114 112 109 107 105 102 99 96 94
185 182 200 217 233 231 234 229 225 224 208 178 205 224 232 233 251 9 142 159 160 159 161 162 157 156 154 152 150 147 144 143 140 138 135 132 130 125 122 120 117 113 110 108 106 103 100 97 95
185 205 218 220 230 233 235 222 231 228 223 217 213 225 238 231 192 164 138 160 162 162 163 155 158 157 155 154 151 149 147 145 143 142 139 136 133 128 124 123 119 115 112 110 108 106 104 102 99
188 197 226 235 234 233 242 232 219 220 215 223 230 223 211 253 221 122 145 165 166 164 164 155 161 159 157 156 153 151 151 148 146 143 141 139 135 131 126 123 121 118 115 115 113 109 107 106 104
211 216 224 233 239 238 239 244 234 237 218 208 223 238 224 154 143 151 163 170 169 165 163 158 164 161 159 158 156 155 153 151 149 146 143 141 137 132 128 125 123 122 120 120 118 114 111 109 107
204 218 229 234 237 237 236 237 240 245 243 233 233 243 232 158 175 164 165 172 171 165 164 160 164 162 161 160 159 158 156 154 152 148 147 144 140 137 133 129 127 126 124 123 121 117 113 112 110
222 223 237 242 245 241 237 233 237 242 244 238 237 241 223 183 160 160 164 171 169 167 168 165 167 166 163 162 160 159 158 157 154 150 148 145 143 141 137 135 133 130 128 126 123 120 116 115 112
236 236 241 241 245 246 243 238 242 243 249 248 236 237 226 165 149 158 160 168 171 173 175 172 172 171 169 166 160 158 158 156 153 148 144 141 141 140 138 140 135 133 132 131 127 122 120 117 112
224 232 236 235 243 248 243 242 242 250 251 240 236 255 277 144 155 160 164 172 178 181 182 181 177 174 171 168 160 160 157 153 151 148 141 151 154 149 150 136 137 138 136 134 131 129 123 122 117
214 232 238 242 249 255 250 247 246 241 239 237 232 231 187 169 177 178 181 182 184 186 187 186 182 176 173 166 164 169 167 164 171 165 164 168 160 153 145 127 132 136 135 135 130 129 135 153 138
222 239 249 252 255 258 254 250 247 247 244 241 237 221 190 189 194 196 196 194 192 189 188 189 185 180 175 170 171 171 171 171 176 172 171 166 159 153 156 154 151 152 155 147 142 156 155 157 138
240 244 248 253 252 253 253 256 250 245 250 255 250 230 204 202 205 205 203 201 197 194 192 192 187 184 181 177 177 175 174 175 175 175 174 170 166 168 165 167 164 166 165 158 164 162 157 158 158
243 249 251 253 252 252 257 254 257 254 251 254 245 226 219 216 215 214 209 205 201 199 196 194 191 187 184 182 180 182 180 179 177 177 179 177 172 173 169 170 169 172 167 169 168 171 163 166 163
253 255 258 257 253 251 254 257 254 255 254 247 237 231 230 224 221 217 210 207 204 201 198 194 193 191 187 185 184 185 184 182 180 179 183 182 179 175 175 173 173 174 176 173 177 174 170 169 171
260 260 260 249 244 244 255 255 246 250 251 248 243 238 236 231 225 220 215 210 206 203 199 195 194 193 191 190 189 186 185 183 183 182 184 185 184 180 180 180 178 177 177 178 180 173 179 172 175
248 243 251 245 239 239 238 253 249 249 248 248 247 245 237 230 228 224 218 213 207 202 199 196 193 194 194 192 190 188 188 185 185 185 186 188 187 185 184 184 184 178 176 181 181 182 185 183 190
235 242 250 257 235 240 239 259 261 255 249 248 246 244 238 231 229 226 220 214 208 203 198 195 194 194 193 192 189 190 189 190 187 186 188 189 189 188 189 190 186 181 181 184 184 192 193 190 192
250 255 256 255 247 250 252 259 265 257 253 251 247 244 239 232 228 225 220 213 208 204 199 196 194 194 191 189 188 187 191 192 191 191 192 189 190 191 193 192 190 186 187 188 190 190 195 199 192
265 266 262 263 259 256 258 262 263 260 253 252 248 243 241 236 231 222 218 211 207 203 200 198 195 193 189 187 187 188 191 192 192 195 195 193 193 192 194 192 191 191 194 194 195 191 192 195 192
261 263 266 271 263 258 264 265 262 256 253 250 251 244 240 238 234 222 214 207 205 204 202 199 198 194 192 192 190 192 191 194 194 193 198 197 196 195 195 196 193 193 196 196 196 193 195 189 194
259 259 262 271 280 257 265 265 255 253 248 248 250 247 242 237 234 226 216 209 205 204 203 200 199 197 194 191 188 186 186 188 193 195 197 200 199 198 197 199 197 195 198 198 196 195 198 193 192
265 263 264 265 269 264 251 272 261 253 251 249 246 243 241 236 231 227 221 212 208 207 203 203 200 198 195 191 190 189 191 194 197 194 195 197 200 200 200 200 200 198 200 200 198 200 200 200 195
268 280 268 261 261 265 248 258 265 252 252 250 246 242 243 239 233 229 223 216 212 207 200 202 202 200 196 195 195 196 201 202 196 194 197 197 198 202 201 201 200 200 201 202 198 197 200 203 204
273 277 268 252 249 251 238 240 265 245 253 257 252 245 245 249 244 237 229 222 214 207 201 199 203 202 198 197 198 200 203 201 196 194 194 195 195 199 202 201 200 201 201 202 200 199 201 203 206
251 262 255 232 225 245 228 236 254 271 267 263 262 259 256 259 257 250 239 229 218 207 200 198 203 205 200 199 201 204 205 204 202 197 197 194 194 197 199 198 201 200 201 200 198 199 202 205 206
246 239 251 265 254 267 237 241 256 297 279 273 272 271 269 266 268 265 257 245 230 215 206 199 202 208 204 202 203 205 205 205 206 204 200 199 199 199 197 198 200 201 199 198 198 199 201 203 206
243 234 252 276 277 267 243 248 265 274 274 286 301 306 307 300 290 282 274 260 243 225 214 207 205 209 209 205 204 205 205 205 206 204 204 202 202 198 196 196 199 200 199 198 196 201 199 201 206
243 255 229 235 258 257 251 252 250 243 273 320 333 340 342 333 319 305 294 279 260 239 223 214 210 210 212 209 207 205 205 205 206 204 204 203 201 196 195 195 197 197 197 197 197 199 201 200 202
226 222 235 244 259 269 266 257 73 222 340 341 346 348 344 340 333 322 308 293 270 249 230 220 220 214 212 211 209 207 206 205 205 205 206 204 202 197 196 195 195 195 196 196 197 200 198 201 201
244 237 227 242 250 259 273 271 169 284 349 349 344 341 336 334 331 325 316 304 285 264 243 227 224 221 216 212 211 210 206 204 205 206 206 203 202 199 198 195 194 195 196 196 197 199 200 201 202